Weather History for Rhinelander, WI

Change the Weather History Date:

Monday, December 12, 2011

  Actual Average Record
Temperature  
Mean Temperature 33 °F 18 °F  
Max Temperature 34 °F 26 °F 53 °F (1913)
Min Temperature 32 °F 9 °F -18 °F (1989)
Degree Days  
Heating Degree Days 32 47  
Month to date heating degree days 552 542  
Since 1 July heating degree days 2343 2676  
Cooling Degree Days 0 0  
Month to date cooling degree days 0 0  
Year to date cooling degree days 321 261  
Moisture  
Dew Point 32 °F    
Average Humidity 96    
Maximum Humidity 100    
Minimum Humidity 92    
Precipitation  
Precipitation 0.16 in 0.05 in 0.54 in (1991)
Month to date precipitation 0.82 0.62  
Year to date precipitation 27.01 30.58  
Snow  
Snow 0.70 in - 8.00 in (1961)
Month to date snowfall 8.4  
Since 1 July snowfall 22.7  
Snow Depth 5.00 in    
Sea Level Pressure  
Sea Level Pressure 30.22 in    
Wind  
Wind Speed 5 mph (SSW)    
Max Wind Speed 13 mph    
Max Gust Speed 16 mph    
Visibility 2 miles    
Events Fog , Rain , Snow    
T = Trace of Precipitation, MM = Missing Value Source: NWS Daily Summary

Daily Weather History Graph

Daily Weather History Graph

Search for Another Location

Airport:

Trip Planner

Search our weather history database for the weather conditions in past years. The results will help you decide how hot, cold, wet, or windy it might be!

Date:

Astronomy

Dec. 12, 2011 Rise Set
Actual Time 7:29 AM CST 4:14 PM CST
Civil Twilight 6:54 AM CST 4:48 PM CST
Nautical Twilight 6:17 AM CST 5:25 PM CST
Astronomical Twilight 5:41 AM CST 6:01 PM CST
Moon 6:27 PM CST (12/12) 8:58 AM CST (12/12)
Length of Visible Light 9h 53m
Length of Day
8h 44m
Waning Gibbous, 95% of the Moon is Illuminated
Dec 12
Waning Gibbous
Dec 17
Last Quarter
Dec 24
New
Jan 1
First Quarter
Jan 9
Full

Hourly Weather History & Observations

Time (CST) Temp. Windchill Dew Point Humidity Pressure Visibility Wind Dir Wind Speed Gust Speed Precip Events Conditions
12:06 AM 32.0 °F 23.6 °F 30.2 °F 93% 30.15 in 2.5 mi SSW 10.4 mph - N/A   Overcast
12:19 AM 32.0 °F 23.6 °F 30.2 °F 93% 30.15 in 3.0 mi SSW 10.4 mph - N/A   Overcast
12:45 AM 32.0 °F 24.2 °F 30.2 °F 93% 30.15 in 2.5 mi SSW 9.2 mph - N/A   Overcast
12:53 AM 32.0 °F 23.0 °F 30.9 °F 96% 30.21 in 2.5 mi SSW 11.5 mph - N/A   Overcast
1:25 AM 32.0 °F 25.6 °F 30.2 °F 93% 30.15 in 3.0 mi SSW 6.9 mph - N/A   Overcast
1:38 AM 32.0 °F 26.4 °F 30.2 °F 93% 30.16 in 2.5 mi SSW 5.8 mph - N/A   Overcast
1:53 AM 32.0 °F 26.4 °F 32.0 °F 100% 30.21 in 2.5 mi SSW 5.8 mph - N/A   Overcast
2:24 AM 32.0 °F 26.4 °F 32.0 °F 100% 30.16 in 1.8 mi SSW 5.8 mph - N/A   Overcast
2:53 AM 32.0 °F 25.6 °F 32.0 °F 100% 30.21 in 1.5 mi SSW 6.9 mph - N/A   Overcast
3:53 AM 33.1 °F 26.1 °F 32.0 °F 96% 30.20 in 1.2 mi SSW 8.1 mph - N/A   Overcast
4:53 AM 33.1 °F 27.7 °F 32.0 °F 96% 30.20 in 1.8 mi SSW 5.8 mph - N/A   Overcast
5:04 AM 33.8 °F 26.4 °F 32.0 °F 93% 30.15 in 2.0 mi SSW 9.2 mph - N/A   Overcast
5:43 AM 33.8 °F 29.6 °F 33.8 °F 100% 30.15 in 1.8 mi South 4.6 mph - N/A   Overcast
5:53 AM 33.1 °F 26.9 °F 33.1 °F 100% 30.21 in 1.5 mi SSW 6.9 mph - N/A   Overcast
6:53 AM 34.0 °F 29.8 °F 33.1 °F 96% 30.22 in 1.8 mi SSW 4.6 mph - N/A   Overcast
8:06 AM 33.8 °F 28.6 °F 33.8 °F 100% 30.17 in 0.8 mi SSW 5.8 mph - N/A   Overcast
8:18 AM 33.8 °F 27.7 °F 33.8 °F 100% 30.17 in 1.0 mi SSW 6.9 mph - N/A   Overcast
8:53 AM 34.0 °F 28.0 °F 33.1 °F 96% 30.23 in 1.0 mi SSW 6.9 mph - N/A   Overcast
9:53 AM 34.0 °F 28.0 °F 33.1 °F 96% 30.25 in 1.5 mi SSW 6.9 mph - 0.00 in Rain Light Rain
10:53 AM 34.0 °F 29.8 °F 33.1 °F 96% 30.25 in 1.2 mi SSW 4.6 mph - 0.01 in Rain Light Rain
11:39 AM 33.8 °F 29.6 °F 33.8 °F 100% 30.20 in 0.8 mi SSW 4.6 mph - 0.01 in Snow Light Snow
11:53 AM 33.1 °F 27.7 °F 32.0 °F 96% 30.25 in 0.5 mi SSW 5.8 mph - 0.03 in Fog , Snow Snow
12:15 PM 33.8 °F 28.6 °F 32.0 °F 93% 30.19 in 0.2 mi SSW 5.8 mph - 0.04 in Fog , Snow Snow
12:32 PM 33.8 °F 28.6 °F 32.0 °F 93% 30.18 in 0.5 mi SSW 5.8 mph - 0.06 in Fog , Snow Snow
12:53 PM 33.1 °F 26.9 °F 32.0 °F 96% 30.24 in 0.8 mi SSW 6.9 mph - 0.07 in Snow Light Snow
1:03 PM 33.8 °F 27.7 °F 32.0 °F 93% 30.18 in 1.0 mi SSW 6.9 mph - 0.00 in Snow Light Snow
1:53 PM 33.1 °F 26.9 °F 32.0 °F 96% 30.24 in 1.8 mi SSW 6.9 mph - 0.00 in Snow Light Snow
2:07 PM 33.8 °F 27.7 °F 32.0 °F 93% 30.18 in 2.0 mi SW 6.9 mph - 0.00 in Snow Light Snow
2:23 PM 33.8 °F 27.0 °F 32.0 °F 93% 30.18 in 3.0 mi SW 8.1 mph - 0.00 in Snow Light Snow
2:53 PM 33.1 °F 26.9 °F 32.0 °F 96% 30.25 in 6.0 mi SW 6.9 mph - 0.00 in   Overcast
3:53 PM 33.1 °F 26.9 °F 32.0 °F 96% 30.27 in 5.0 mi SSW 6.9 mph - N/A   Overcast
4:53 PM 33.1 °F 28.7 °F 32.0 °F 96% 30.28 in 4.0 mi SW 4.6 mph - 0.01 in   Overcast
5:53 PM 33.1 °F 27.7 °F 32.0 °F 96% 30.29 in 4.0 mi SSW 5.8 mph - 0.00 in   Overcast
7:36 PM 33.8 °F 29.6 °F 32.0 °F 93% 30.25 in 2.5 mi SW 4.6 mph - N/A   Overcast
7:53 PM 33.1 °F 27.7 °F 32.0 °F 96% 30.32 in 2.0 mi SW 5.8 mph - N/A   Overcast
8:53 PM 33.1 °F - 33.1 °F 100% 30.32 in 2.0 mi Calm Calm - N/A   Overcast
9:41 PM 33.8 °F - 33.8 °F 100% 30.27 in 1.5 mi Calm Calm - N/A   Overcast
9:53 PM 33.1 °F - 33.1 °F 100% 30.33 in 0.8 mi Calm Calm - N/A   Overcast
10:53 PM 33.1 °F - 32.0 °F 96% 30.33 in 0.2 mi Calm Calm - N/A Fog Fog
11:53 PM 33.1 °F - 33.1 °F 100% 30.34 in 0.2 mi Calm Calm - N/A Fog Fog